Showing default

ICEYE-X4, 44390

Orbit data source: Space-Track

ICEYE-X4, 44390 is a payload satellite owned by ICEYE (FI) in SSO that was launched on Fri, 05 Jul 2019 UTC via a SOYUZ-2-1B launch vehicle from the Vostochny Cosmodrome (VOSTO). Payloads include a variety of satellites, spacecraft, and rockets equipped with specific instruments for various scientific and technological missions. These include communications satellites like Starlink; space stations such as the ISS; scientific satellites like the Hubble; Earth observation satellites from companies like Planet Labs, Umbra, and HawkEye 360; GPS; miniature CubeSats for education and research; and military/defense satellites.

Loading next visibility...
ICEYE-X4 details
Identifier
44390, 2019-038D
Orbit
SSO
Last TLE update6 hours ago
Origin
Flag of FIICEYE (FI / FIN)
ManufacturerICEYE
MissionOperational Commercial Radar Imaging
Bus & MotorICEYE, Unknown motor
Mass80 kg wet, 80 kg dry
Launch date (UTC)
2019-07-05 (5 years ago)
Launch vehicle
SOYUZ-2-1B
Launch site
Vostochny Cosmodrome (VOSTO)
Object type
Payload
Rocket body
Debris
Shape & HBRBox + 1 Pan, 3.25 m
Radar Cross Section1.837 m², Medium (>0.1 m² and < 1m²)

Expand to show TLE details & history

TLE from 6 hours ago
0 ICEYE-X4
1 44390U 19038D   24339.96492890  .00015827  00000-0  84881-3 0  9994
2 44390  97.9017 333.9502 0017994  85.1293 275.1992 15.14920467296739
Epoch: 2024-12-04T23:09Z
Definitive object data (Epoch: 2024-12-04T23:09:29.856Z)
Latitude-0.00005°
Longitude-87.67671°
Altitude523.186 km
Speed7.602 km/s
True Right ascension22h 15m 48s
True Declination0° 00' 00"
Sunlit
Object was in daylight at TLE epoch
Visualization TLE readout
Latitude-9.38931°
Longitude91.25726°
Altitude529.147 km
Speed7.596 km/s
Apparent Right ascension12h 01m 49s
Apparent Declination-27° 56' 07"
Sunlit
Object is in daylight
Visualization observer readout
Local Sidereal Time02:42:10
Azimuth82.549° E
Elevation-54.987°
Doppler factor1
Orbital elements
Apogee altitude530.624 km
Perigee altitude505.805 km
Semi-major axis6,896.351 km
Eccentricity0.0017994
Inclination97.9017°
RAAN333.9502°
Arg. of periapsis85.1293°
True anomaly274.99381°
Mean anomaly275.1992°
Eccentric anomaly275.09651°
Mean motion3.78978 °/min
BSTAR0.00084881
Orbital period94.99 mins
Loading maneuver chart data...

ICEYE-X4 Visibility forecast

Observer location: undefined°, undefined

Span
Click to sort rows by Start time (UTC) header in descending order
Start Az.
Max El. time (UTC)
Max El. Az.
Max El.
End time (UTC)
End Az.
6 mins2024-12-05 12:24:42.847Z28.856° NE2024-12-05 12:27:42.847Z121.481° SE36.479°2024-12-05 12:30:42.847Z175.553° S
4 mins2024-12-05 23:05:42.847Z108.262° ESE2024-12-05 23:07:42.847Z63.301° ENE21.515°2024-12-05 23:09:42.847Z23.922° NE
4 mins2024-12-06 00:39:42.847Z227.32° WSW2024-12-06 00:41:42.847Z268.996° W19.521°2024-12-06 00:43:42.847Z307.147° NW
|